Regional Weather Roundup
Issued by NWS

Home | Current Version | Previous Version | Graphics & Text | Print | Product List | Glossary On
Versions: 1 2 3 4 5 6 7 8 9 10 11 12 13 14 15 16 17 18 19 20 21 22 23 24 25 26 27 28 29 30
000
ASUS45 KGTF 180810
RWRMT
MONTANA HOURLY WEATHER ROUNDUP
NATIONAL WEATHER SERVICE GREAT FALLS MT
200 AM MDT SAT APR 18 2015

NOTE: "FAIR" INDICATES FEW OR NO CLOUDS BELOW 12000 FEET WITH NO
SIGNIFICANT WEATHER AND/OR OBSTRUCTIONS TO VISIBILITY.

MTZ001>007-043-180900-
WEST OF THE DIVIDE

CITY           SKY/WX    TMP DP  RH WIND       PRES   REMARKS
KALISPELL      MOSUNNY   38  33  82 E3        30.05R
MISSOULA       CLEAR     44  30  57 W6        30.10R
BUTTE          CLEAR     33  27  78 S5        30.12R
DEER LODGE       N/A     39  27  60 CALM      30.14R
EUREKA           N/A     46  36  66 CALM      30.06R
HAMILTON         N/A     43  30  61 S5        30.11S
LIBBY            N/A     45  34  65 CALM      30.07R
$$

MTZ008-052>055-180900-
SOUTHWEST MONTANA

CITY           SKY/WX    TMP DP  RH WIND       PRES   REMARKS
BOZEMAN        CLEAR     32  25  75 SE7       30.07R WCI  26
DILLON         CLEAR     37  26  64 S6        30.08R
$$

MTZ009-010-012-014-046-048-049-054-180900-
EAST SLOPES AND CENTRAL MONTANA

CITY           SKY/WX    TMP DP  RH WIND       PRES   REMARKS
CUT BANK       CLEAR     44  29  55 NE3       30.02R
GREAT FALLS    CLEAR     40  28  62 SW12      30.01R
MALMSTROM AFB  CLEAR     48  30  48 SW9       30.01R
HELENA         CLEAR     45  26  47 CALM      30.05R
$$

MTZ011-013-016-021-045-047-050-051-180900-
NORTH CENTRAL MONTANA

CITY           SKY/WX    TMP DP  RH WIND       PRES   REMARKS
HAVRE          PTCLDY    49  32  52 W9        29.94R
LEWISTOWN      CLOUDY    43  28  55 S5        29.99S
FORT BENTON      N/A     48  34  57 SW6       29.99R
$$

MTZ017>020-022>042-056>058-061-062-180900-
EASTERN PLAINS

CITY           SKY/WX    TMP DP  RH WIND       PRES   REMARKS
BAKER          CLEAR     35  28  75 SE7       30.04F WCI  29
BILLINGS       CLEAR     43  34  70 SW9       29.99F
GLASGOW        CLEAR     43  28  55 E13       29.96S
JORDAN           N/A     47  30  51 CALM      29.97F
LIVINGSTON     CLEAR     35  24  64 NW8       30.05S WCI  29
MILES CITY     CLEAR     48  30  49 S10       29.99F
SIDNEY         CLEAR     39  27  60 CALM      30.03F
WOLF POINT     CLEAR     40  29  64 NE5       29.99F
BIG TIMBER       N/A     43  25  49 W10       30.04F
FORSYTH          N/A     52  32  46 CALM      29.98F
PLENTYWOOD       N/A     43  27  52 E10       30.02F
POPLAR           N/A     46  28  49 E5        29.99F
$$

REGIONAL REPORTS...DAKOTAS

CITY           SKY/WX    TMP DP  RH WIND       PRES   REMARKS
WILLISTON      CLEAR     48  27  44 SE7       30.05F
MINOT          CLEAR     39  26  59 SE7       30.10F
DICKINSON      CLEAR     41  26  55 E10       30.04F
BEACH          FAIR      37  25  60 SE8       30.04F WCI  31
CROSBY         FAIR      41  27  56 CALM      30.06F
WATFORD CITY   FAIR      39  27  60 E5        30.04S
BISMARCK       PTCLDY    38  27  64 CALM      30.11S
GRAND FORKS    CLEAR     30  24  78 CALM      30.16R
FARGO          FAIR      44  23  43 N8        30.12S
BUFFALO SD       N/A     45  30  55 S8        29.99F
RAPID CITY     CLOUDY    48  45  89 CALM      30.06F
$$

REGIONAL REPORTS...WYOMING/IDAHO/WASHINGTON

CITY           SKY/WX    TMP DP  RH WIND       PRES   REMARKS
GILLETTE       PTCLDY    42  39  89 SW10      30.05F
SHERIDAN       PTCLDY    36  30  79 CALM      30.01F
BUFFALO WY     PTCLDY    43  35  73 S12       30.04F
CODY           PTCLDY    43  30  61 SW8       30.03F
YELLOWSTONE LA   N/A     26  20  77 CALM      30.15F
IDAHO FALLS    CLEAR     41  29  62 SW9       30.05S
SALMON         CLEAR     41  23  48 CALM      30.10R
BOISE          CLEAR     50  33  52 NW3       30.05R
SPOKANE        CLEAR     47  34  60 W8        30.12R
$$

REGIONAL REPORTS...ALBERTA

CITY           SKY/WX    TMP DP  RH WIND       PRES   REMARKS
EDMONTON       CLEAR     39  30  70 W16G24    30.06R WCI  30
CALGARY        LGT RAIN  39  36  87 N20G26    30.13R FOG     WCI  30
LETHBRIDGE     CLOUDY    45  28  53 N7        30.02R
MEDICINE HAT   PTCLDY    48  37  66 NW12G18   29.99R
$$

REGIONAL REPORTS...SASKATCHEWAN

CITY           SKY/WX    TMP DP  RH WIND       PRES   REMARKS
SWIFT CURRENT  PTCLDY    52  27  37 SW22G28   29.88R
REGINA         PTCLDY    45  30  57 SE23G30   29.97F
SASKATOON      CLOUDY    52  27  37 SW13G21   29.86R
$$



USA.gov is the U.S. government's official web portal to all federal, state and local government web resources and services.